Weather History for Washington, NC

Change the Weather History Date:

Saturday, January 12, 2013

  Actual Average (KEWN) Record (KEWN)
Temperature  
Mean Temperature 61 °F 44 °F  
Max Temperature 64 °F 54 °F 76 °F (2013)
Min Temperature 58 °F 34 °F 15 °F (1982)
Degree Days  
Heating Degree Days 4 21  
Month to date heating degree days 252  
Since 1 July heating degree days 1246  
Cooling Degree Days 0 0  
Month to date cooling degree days 0  
Year to date cooling degree days 0  
Growing Degree Days 11 (Base 50)    
Moisture  
Dew Point 55 °F    
Average Humidity 81    
Maximum Humidity 81    
Minimum Humidity 80    
Precipitation  
Precipitation 0.00 in 0.13 in 1.58 in (1994)
Month to date precipitation 1.57  
Year to date precipitation 1.57  
Snow  
Snow 0.00 in - - ()
Month to date snowfall  
Since 1 July snowfall  
Snow Depth -    
Sea Level Pressure  
Sea Level Pressure 30.15 in    
Wind  
Wind Speed 3 mph (West)    
Max Wind Speed 8 mph    
Max Gust Speed -    
Visibility 4 miles    
Events      
T = Trace of Precipitation, MM = Missing Value Source: NWS Daily Summary

Daily Weather History Graph

Daily Weather History Graph

Search for Another Location

Airport:

Trip Planner

Search our weather history database for the weather conditions in past years. The results will help you decide how hot, cold, wet, or windy it might be!

Date:

Astronomy

Jan. 12, 2013 Rise Set
Actual Time 7:17 AM EST 5:15 PM EST
Civil Twilight 6:49 AM EST 5:43 PM EST
Nautical Twilight 6:18 AM EST 6:15 PM EST
Astronomical Twilight 5:47 AM EST 6:45 PM EST
Moon 7:38 AM EST (1/12) 6:38 PM EST (1/12)
Length of Visible Light 10h 53m
Length of Day
9h 58m
New Moon, 1% of the Moon is Illuminated
Jan 12
New Moon
Jan 18
First Quarter
Jan 26
Full
Feb 3
Last Quarter
Feb 10
New

Hourly Weather History & Observations

Time (EST) Temp. Dew Point Humidity Pressure Visibility Wind Dir Wind Speed Gust Speed Precip Events Conditions
12:15 AM 60.4 °F 54.5 °F 81% 30.14 in 0.5 mi SW 4.6 mph - N/A   Haze
12:35 AM 60.6 °F 54.7 °F 81% 30.14 in 0.5 mi SW 4.6 mph - N/A   Haze
12:55 AM 60.4 °F 54.5 °F 81% 30.14 in 0.5 mi WSW 3.5 mph - N/A   Haze
1:15 AM 60.4 °F 54.5 °F 81% 30.14 in 0.5 mi WSW 4.6 mph - N/A   Haze
1:35 AM 60.8 °F 54.7 °F 80% 30.14 in 0.5 mi SW 4.6 mph - N/A   Haze
1:55 AM 60.8 °F 54.7 °F 80% 30.14 in 0.5 mi WSW 3.5 mph - N/A   Haze
2:35 AM 62.2 °F 56.3 °F 81% 30.15 in 0.8 mi West 3.5 mph - N/A   Haze
2:55 AM 61.2 °F 55.2 °F 81% 30.15 in 1.0 mi WSW 3.5 mph - N/A   Haze
3:15 AM 61.0 °F 55.0 °F 81% 30.15 in 4.0 mi West 5.8 mph - N/A   Haze
3:35 AM 60.8 °F 54.9 °F 81% 30.14 in 1.8 mi WSW 6.9 mph - N/A   Haze
3:55 AM 60.8 °F 54.7 °F 80% 30.14 in 2.5 mi West 3.5 mph - N/A   Haze
4:15 AM 60.4 °F 54.5 °F 81% 30.13 in 4.0 mi WSW 8.1 mph - N/A   Haze
4:35 AM 60.4 °F 54.5 °F 81% 30.13 in 2.5 mi West 4.6 mph - N/A   Haze
4:55 AM 60.4 °F 54.5 °F 81% 30.14 in 3.0 mi WSW 5.8 mph - N/A   Haze
5:15 AM 59.2 °F 53.2 °F 81% 30.14 in 1.2 mi Calm Calm - N/A   Haze
5:35 AM 58.1 °F 52.2 °F 81% 30.14 in 1.8 mi West 4.6 mph - N/A   Haze
5:55 AM 58.1 °F 52.2 °F 81% 30.15 in 4.0 mi West 3.5 mph - N/A   Haze
6:15 AM 58.1 °F 52.2 °F 81% 30.15 in 3.0 mi Calm Calm - N/A   Haze
6:35 AM 58.1 °F 52.2 °F 81% 30.16 in 2.0 mi Calm Calm - N/A   Haze
6:55 AM 58.1 °F 52.2 °F 81% 30.16 in 1.8 mi Calm Calm - N/A   Haze
7:15 AM 58.1 °F 52.2 °F 81% 30.16 in 1.2 mi Calm Calm - N/A   Haze
7:35 AM 58.1 °F 52.2 °F 81% 30.16 in 0.5 mi Calm Calm - N/A   Haze
7:55 AM 58.1 °F 52.2 °F 81% 30.17 in 0.2 mi West 3.5 mph - N/A   Haze
8:15 AM 58.1 °F 52.2 °F 81% 30.18 in 0.2 mi Calm Calm - N/A   Haze
8:35 AM 58.1 °F 52.2 °F 81% 30.18 in 0.2 mi Calm Calm - N/A   Haze
8:55 AM 58.1 °F 52.2 °F 81% 30.18 in 0.2 mi Calm Calm - N/A   Haze
9:15 AM 58.1 °F 52.2 °F 81% 30.18 in 0.2 mi West 3.5 mph - N/A   Haze
9:35 AM 58.1 °F 52.2 °F 81% 30.18 in 0.8 mi Calm Calm - N/A   Haze
9:55 AM 58.1 °F 52.2 °F 81% 30.19 in 2.5 mi Calm Calm - N/A   Haze
10:15 AM 58.1 °F 52.2 °F 81% 30.19 in 2.0 mi Calm Calm - N/A   Haze
10:35 AM 58.3 °F 52.3 °F 81% 30.18 in 2.5 mi Calm Calm - N/A   Haze
10:55 AM 60.4 °F 54.5 °F 81% 30.18 in 3.0 mi WSW 3.5 mph - N/A   Haze
11:15 AM 60.4 °F 54.5 °F 81% 30.17 in 3.0 mi Calm Calm - N/A   Haze
11:35 AM 60.4 °F 54.5 °F 81% 30.16 in 4.0 mi Calm Calm - N/A   Haze
11:55 AM 60.4 °F 54.5 °F 81% 30.15 in 5.0 mi Calm Calm - N/A   Haze
12:15 PM 60.4 °F 54.5 °F 81% 30.14 in 5.0 mi Calm Calm - N/A   Haze
12:35 PM 62.6 °F 56.5 °F 80% 30.14 in 5.0 mi Calm Calm - N/A   Haze
12:55 PM 63.0 °F 56.8 °F 80% 30.13 in 7.0 mi WNW 4.6 mph - N/A   Mostly Cloudy
1:35 PM 63.1 °F 57.2 °F 81% 30.13 in 7.0 mi NW 3.5 mph - N/A   Mostly Cloudy
1:55 PM 64.4 °F 58.1 °F 80% 30.13 in 10.0 mi WNW 4.6 mph - N/A   Mostly Cloudy
2:15 PM 64.4 °F 58.1 °F 80% 30.13 in 10.0 mi Calm Calm - N/A   Overcast
2:35 PM 64.4 °F 58.1 °F 80% 30.13 in 10.0 mi SW 3.5 mph - N/A   Overcast
2:55 PM 64.4 °F 58.1 °F 80% 30.13 in 10.0 mi Calm Calm - N/A   Overcast
3:15 PM 63.7 °F 57.7 °F 81% 30.13 in 10.0 mi Calm Calm - N/A   Overcast
3:35 PM 63.7 °F 57.6 °F 80% 30.13 in 10.0 mi Calm Calm - N/A   Overcast
3:55 PM 63.3 °F 57.2 °F 80% 30.14 in 7.0 mi Calm Calm - N/A   Overcast
4:15 PM 63.0 °F 57.2 °F 81% 30.14 in 7.0 mi Calm Calm - N/A   Overcast
4:35 PM 63.0 °F 57.2 °F 81% 30.14 in 7.0 mi Calm Calm - N/A   Overcast
4:55 PM 63.0 °F 56.8 °F 80% 30.14 in 7.0 mi Calm Calm - N/A   Overcast
5:15 PM 63.0 °F 57.2 °F 81% 30.14 in 10.0 mi North 3.5 mph - N/A   Overcast
5:35 PM 63.0 °F 57.2 °F 81% 30.14 in 7.0 mi North 3.5 mph - N/A   Overcast
5:55 PM 63.0 °F 57.2 °F 81% 30.14 in 7.0 mi Calm Calm - N/A   Overcast
6:15 PM 62.4 °F 56.5 °F 81% 30.15 in 7.0 mi Calm Calm - N/A   Overcast
6:35 PM 61.0 °F 55.0 °F 81% 30.14 in 7.0 mi Calm Calm - N/A   Overcast
6:55 PM 60.8 °F 54.7 °F 80% 30.14 in 5.0 mi Calm Calm - N/A   Haze
7:15 PM 60.8 °F 54.7 °F 80% 30.14 in 5.0 mi ENE 3.5 mph - N/A   Haze
7:35 PM 60.6 °F 54.5 °F 80% 30.14 in 5.0 mi Calm Calm - N/A   Haze
8:15 PM 60.4 °F 54.5 °F 81% 30.14 in 4.0 mi East 3.5 mph - N/A   Haze
8:35 PM 60.4 °F 54.5 °F 81% 30.14 in 3.0 mi East 4.6 mph - N/A   Haze
8:55 PM 60.4 °F 54.5 °F 81% 30.13 in 3.0 mi Calm Calm - N/A   Haze
9:15 PM 60.4 °F 54.5 °F 81% 30.14 in 2.5 mi East 4.6 mph - N/A   Haze
9:35 PM 60.4 °F 54.5 °F 81% 30.14 in 1.8 mi East 5.8 mph - N/A   Haze
9:55 PM 60.4 °F 54.5 °F 81% 30.14 in 1.5 mi Calm Calm - N/A   Haze
10:15 PM 60.4 °F 54.5 °F 81% 30.14 in 0.8 mi Calm Calm - N/A   Haze
10:35 PM 60.4 °F 54.5 °F 81% 30.14 in 0.5 mi Calm Calm - N/A   Haze
10:55 PM 60.4 °F 54.5 °F 81% 30.14 in 0.5 mi Calm Calm - N/A   Haze
11:15 PM 60.4 °F 54.5 °F 81% 30.14 in 0.2 mi Calm Calm - N/A   Haze
11:35 PM 60.4 °F 54.5 °F 81% 30.14 in 0.5 mi East 4.6 mph - N/A   Haze
11:55 PM 60.4 °F 54.5 °F 81% 30.14 in 0.2 mi Calm Calm - N/A   Haze